TimeCDT,TemperatureF,Dew PointF,Humidity,Sea Level PressureIn,VisibilityMPH,Wind Direction,Wind SpeedMPH,Gust SpeedMPH,PrecipitationIn,Events,Conditions,WindDirDegrees,DateUTC
12:14 AM,68.0,62.6,83,29.53,10.0,SSE,18.4,-,N/A,,Mostly Cloudy,160,2013-05-30 05:14:00
12:34 AM,66.2,62.6,88,29.51,10.0,SSE,15.0,-,N/A,Rain,Rain,150,2013-05-30 05:34:00
12:53 AM,64.4,60.8,88,29.51,10.0,SSE,15.0,-,N/A,Rain,Light Rain,160,2013-05-30 05:53:00
1:14 AM,64.4,59.0,83,29.51,10.0,SSE,13.8,-,N/A,,Mostly Cloudy,150,2013-05-30 06:14:00
1:34 AM,64.4,59.0,83,29.51,10.0,SSE,15.0,-,N/A,,Scattered Clouds,150,2013-05-30 06:34:00
1:53 AM,64.4,59.0,83,29.50,10.0,SE,15.0,-,N/A,,Scattered Clouds,140,2013-05-30 06:53:00
2:14 AM,62.6,59.0,88,29.47,10.0,SE,12.7,-,N/A,,Clear,130,2013-05-30 07:14:00
2:34 AM,64.4,60.8,88,29.46,10.0,ESE,11.5,-,N/A,,Scattered Clouds,120,2013-05-30 07:34:00
2:53 AM,64.4,60.8,88,29.47,10.0,SE,16.1,-,N/A,,Scattered Clouds,140,2013-05-30 07:53:00
3:14 AM,64.4,60.8,88,29.49,10.0,SSE,13.8,-,N/A,,Clear,150,2013-05-30 08:14:00
3:34 AM,62.6,60.8,94,29.49,10.0,SSE,9.2,-,N/A,,Clear,160,2013-05-30 08:34:00
3:53 AM,62.6,59.0,88,29.49,10.0,SSE,8.1,-,N/A,,Clear,150,2013-05-30 08:53:00
4:14 AM,62.6,60.8,94,29.48,10.0,ESE,5.8,-,N/A,,Mostly Cloudy,120,2013-05-30 09:14:00
4:34 AM,62.6,60.8,94,29.47,10.0,SE,8.1,-,N/A,,Overcast,130,2013-05-30 09:34:00
4:53 AM,62.6,59.0,88,29.48,10.0,SE,8.1,-,N/A,,Mostly Cloudy,130,2013-05-30 09:53:00
5:14 AM,62.6,59.0,88,29.48,10.0,SE,9.2,-,N/A,,Mostly Cloudy,140,2013-05-30 10:14:00
5:33 AM,62.6,59.0,88,29.48,10.0,SE,10.4,-,N/A,,Mostly Cloudy,140,2013-05-30 10:33:00
5:53 AM,62.6,59.0,88,29.47,10.0,SE,8.1,-,N/A,,Light Drizzle,140,2013-05-30 10:53:00
6:14 AM,62.6,59.0,88,29.46,10.0,SE,9.2,-,N/A,,Overcast,130,2013-05-30 11:14:00
6:34 AM,62.6,60.8,94,29.47,10.0,ESE,9.2,-,N/A,,Mostly Cloudy,120,2013-05-30 11:34:00
6:53 AM,62.6,60.8,94,29.47,10.0,SE,10.4,-,N/A,,Mostly Cloudy,130,2013-05-30 11:53:00
7:14 AM,62.6,60.8,94,29.47,10.0,SE,11.5,-,N/A,,Mostly Cloudy,130,2013-05-30 12:14:00
7:34 AM,64.4,60.8,88,29.47,10.0,SSE,10.4,-,N/A,,Mostly Cloudy,150,2013-05-30 12:34:00
7:53 AM,64.4,60.8,88,29.47,10.0,SSE,10.4,-,N/A,,Scattered Clouds,160,2013-05-30 12:53:00
8:14 AM,64.4,60.8,88,29.47,10.0,South,13.8,-,N/A,,Scattered Clouds,180,2013-05-30 13:14:00
8:34 AM,66.2,60.8,83,29.47,10.0,South,15.0,19.6,N/A,,Scattered Clouds,190,2013-05-30 13:34:00
8:53 AM,66.2,60.8,83,29.47,10.0,South,16.1,19.6,N/A,,Scattered Clouds,190,2013-05-30 13:53:00
9:14 AM,66.2,57.2,73,29.46,10.0,South,16.1,-,N/A,,Clear,190,2013-05-30 14:14:00
9:34 AM,68.0,57.2,68,29.47,10.0,SSW,12.7,-,N/A,,Clear,200,2013-05-30 14:34:00
9:53 AM,69.8,57.2,64,29.47,10.0,SSW,13.8,-,N/A,,Clear,200,2013-05-30 14:53:00
10:14 AM,69.8,57.2,64,29.46,10.0,SSW,16.1,-,N/A,,Scattered Clouds,200,2013-05-30 15:14:00
10:34 AM,69.8,57.2,64,29.47,10.0,SSW,18.4,21.9,N/A,,Scattered Clouds,200,2013-05-30 15:34:00
10:54 AM,71.6,59.0,64,29.47,10.0,South,17.3,20.7,N/A,,Scattered Clouds,180,2013-05-30 15:54:00
11:14 AM,69.8,57.2,64,29.47,10.0,South,12.7,17.3,N/A,,Scattered Clouds,180,2013-05-30 16:14:00
11:33 AM,71.6,57.2,60,29.47,10.0,SSE,18.4,25.3,N/A,,Scattered Clouds,160,2013-05-30 16:33:00
11:53 AM,73.4,57.2,57,29.47,10.0,SSE,20.7,26.5,N/A,,Clear,160,2013-05-30 16:53:00
12:14 PM,73.4,55.4,53,29.47,10.0,South,19.6,25.3,N/A,,Clear,170,2013-05-30 17:14:00
12:33 PM,73.4,57.2,57,29.46,10.0,South,16.1,25.3,N/A,,Scattered Clouds,170,2013-05-30 17:33:00
12:53 PM,75.2,57.2,53,29.46,10.0,South,20.7,27.6,N/A,,Scattered Clouds,180,2013-05-30 17:53:00
1:14 PM,75.2,57.2,53,29.45,10.0,South,23.0,27.6,N/A,,Scattered Clouds,180,2013-05-30 18:14:00
1:33 PM,75.2,57.2,53,29.45,10.0,South,25.3,32.2,N/A,,Scattered Clouds,170,2013-05-30 18:33:00
1:54 PM,75.2,59.0,57,29.45,10.0,South,23.0,28.8,N/A,,Scattered Clouds,180,2013-05-30 18:54:00
2:14 PM,75.2,57.2,53,29.45,10.0,South,23.0,27.6,N/A,,Clear,170,2013-05-30 19:14:00
2:33 PM,75.2,57.2,53,29.45,10.0,South,23.0,29.9,N/A,,Scattered Clouds,180,2013-05-30 19:33:00
2:54 PM,73.4,57.2,57,29.45,10.0,South,23.0,29.9,N/A,,Clear,170,2013-05-30 19:54:00
3:14 PM,73.4,57.2,57,29.45,10.0,South,21.9,-,N/A,,Clear,180,2013-05-30 20:14:00
3:33 PM,73.4,55.4,53,29.45,10.0,South,21.9,27.6,N/A,,Clear,170,2013-05-30 20:33:00
3:54 PM,73.4,55.4,53,29.44,10.0,South,21.9,26.5,N/A,,Scattered Clouds,170,2013-05-30 20:54:00
4:14 PM,71.6,55.4,57,29.44,10.0,South,23.0,26.5,N/A,,Scattered Clouds,180,2013-05-30 21:14:00
4:33 PM,73.4,55.4,53,29.44,10.0,South,23.0,27.6,N/A,,Scattered Clouds,170,2013-05-30 21:33:00
4:54 PM,71.6,55.4,57,29.43,10.0,South,18.4,-,N/A,,Clear,170,2013-05-30 21:54:00
5:14 PM,73.4,55.4,53,29.44,10.0,South,16.1,-,N/A,,Clear,170,2013-05-30 22:14:00
5:33 PM,73.4,55.4,53,29.44,10.0,SSE,19.6,-,N/A,,Clear,160,2013-05-30 22:33:00
5:54 PM,73.4,57.2,57,29.43,10.0,SSE,17.3,-,N/A,,Clear,160,2013-05-30 22:54:00
6:14 PM,73.4,57.2,57,29.42,10.0,SSE,18.4,-,N/A,,Clear,160,2013-05-30 23:14:00
6:33 PM,73.4,57.2,57,29.42,10.0,SSE,16.1,-,N/A,,Clear,150,2013-05-30 23:33:00
6:54 PM,71.6,55.4,57,29.41,10.0,SE,13.8,20.7,N/A,,Scattered Clouds,140,2013-05-30 23:54:00
7:14 PM,73.4,57.2,57,29.41,10.0,SSE,15.0,19.6,N/A,,Scattered Clouds,160,2013-05-31 00:14:00
7:33 PM,71.6,57.2,60,29.41,10.0,South,15.0,-,N/A,,Scattered Clouds,170,2013-05-31 00:33:00
7:54 PM,71.6,57.2,60,29.42,10.0,South,20.7,25.3,N/A,,Scattered Clouds,170,2013-05-31 00:54:00
8:14 PM,64.4,57.2,77,29.43,10.0,SSE,18.4,-,N/A,Rain,Rain,150,2013-05-31 01:14:00
8:33 PM,62.6,55.4,77,29.43,10.0,SE,12.7,-,0.01,Rain,Light Rain,140,2013-05-31 01:33:00
8:54 PM,62.6,57.2,82,29.44,10.0,SE,8.1,-,0.12,Rain,Light Rain,130,2013-05-31 01:54:00
9:13 PM,64.4,57.2,77,29.44,10.0,ESE,10.4,-,N/A,,Scattered Clouds,120,2013-05-31 02:13:00
9:34 PM,64.4,57.2,77,29.44,10.0,ESE,10.4,-,N/A,,Clear,120,2013-05-31 02:34:00
9:54 PM,64.4,57.2,77,29.44,10.0,SE,9.2,-,N/A,,Clear,130,2013-05-31 02:54:00
10:13 PM,62.6,59.0,88,29.44,10.0,SE,9.2,-,N/A,,Clear,140,2013-05-31 03:13:00
10:34 PM,64.4,59.0,83,29.43,10.0,SSE,11.5,-,N/A,,Clear,150,2013-05-31 03:34:00
10:54 PM,64.4,59.0,83,29.44,10.0,SSE,10.4,-,N/A,,Mostly Cloudy,150,2013-05-31 03:54:00
11:13 PM,64.4,59.0,83,29.44,10.0,SSE,9.2,-,N/A,,Mostly Cloudy,150,2013-05-31 04:13:00
11:34 PM,64.4,59.0,83,29.44,7.0,Calm,Calm,-,0.04,Rain-Thunderstorm,Light Thunderstorms and Rain,0,2013-05-31 04:34:00
11:54 PM,64.4,59.0,83,29.44,7.0,South,17.3,23.0,0.17,Rain,Heavy Rain,190,2013-05-31 04:54:00